{"data":{"norad_id":54182,"epoch":"2026-09-20T22:00:03.000096Z","epoch_age_seconds":53205,"freshness":"FRESH","line1":"1 54182U 22141AB  26263.91670139  .00004491  00000+0  23557-3 0  9997","line2":"2 54182  53.1592 176.4159 0002373  87.1192 167.1893 15.17673346  5758","mean_motion":15.17673346,"eccentricity":0.0002373,"inclination_deg":53.1592,"raan_deg":176.4159,"arg_perigee_deg":87.1192,"mean_anomaly_deg":167.1893,"bstar":0.00023557,"rev_number":575,"period_min":94.882077477033,"perigee_km":511.23918916551,"apogee_km":514.50966318837,"semimajor_km":6891.0114261769,"source":"CELESTRAK","updated_at":"2026-09-21T09:00:33.093075Z"}}